| time (UTC) | temp F | wind direction | speed MPH | gust MPH | rain 1hr in | rain 24hr in | rain mn in | humidity % | barometer mb |
| 20260502205026 | 69 | 5 | 1.0 | 0.0 | 0.00 | 0.00 | 0.00 | 53 | 1011.0 |
| 20260502204834 | 70 | 5 | 1.0 | 0.0 | 0.00 | 0.00 | 0.00 | 51 | 1011.1 |
| 20260502203529 | 69 | 5 | 1.0 | 0.0 | 0.00 | 0.00 | 0.00 | 54 | 1011.1 |
| 20260502203353 | 69 | 5 | 1.0 | 0.0 | 0.00 | 0.00 | 0.00 | 52 | 1011.4 |
| 20260502202032 | 69 | 65 | 0.0 | 0.0 | 0.00 | 0.00 | 0.00 | 54 | 1011.4 |
| 20260502201816 | 68 | 109 | 0.0 | 0.0 | 0.00 | 0.00 | 0.00 | 53 | 1011.5 |
| 20260502200556 | 67 | 110 | 1.0 | 0.0 | 0.00 | 0.00 | 0.00 | 56 | 1011.5 |
| 20260502200325 | 67 | 240 | 1.0 | 0.0 | 0.00 | 0.00 | 0.00 | 57 | 1011.7 |
| 20260502195039 | 66 | 219 | 1.0 | 0.0 | 0.00 | 0.00 | 0.00 | 60 | 1011.7 |
| 20260502194824 | 65 | 219 | 1.0 | 0.0 | 0.00 | 0.00 | 0.00 | 59 | 1011.9 |
| 20260502193538 | 66 | 136 | 1.0 | 0.0 | 0.00 | 0.00 | 0.00 | 58 | 1011.9 |
| 20260502193324 | 66 | 133 | 1.0 | 0.0 | 0.00 | 0.00 | 0.00 | 59 | 1012.0 |
| 20260502192038 | 64 | 5 | 1.0 | 0.0 | 0.00 | 0.00 | 0.00 | 62 | 1012.0 |
| 20260502191828 | 64 | 141 | 1.0 | 0.0 | 0.00 | 0.00 | 0.00 | 62 | 1012.1 |
| 20260502190523 | 63 | 13 | 1.0 | 0.0 | 0.00 | 0.00 | 0.00 | 64 | 1012.1 |
| 20260502190328 | 63 | 13 | 1.0 | 0.0 | 0.00 | 0.00 | 0.00 | 64 | 1012.2 |
| 20260502185043 | 62 | 76 | 0.0 | 0.0 | 0.00 | 0.00 | 0.00 | 65 | 1012.2 |
| 20260502184829 | 62 | 75 | 0.0 | 0.0 | 0.00 | 0.00 | 0.00 | 66 | 1012.2 |
| 20260502183524 | 61 | 75 | 0.0 | 0.0 | 0.00 | 0.00 | 0.00 | 67 | 1012.2 |
| 20260502183336 | 61 | 75 | 1.0 | 0.0 | 0.00 | 0.00 | 0.00 | 66 | 1012.2 |
| 20260502182030 | 61 | 67 | 1.0 | 0.0 | 0.00 | 0.00 | 0.00 | 67 | 1012.2 |
| 20260502181838 | 61 | 65 | 0.0 | 0.0 | 0.00 | 0.00 | 0.00 | 67 | 1012.3 |
| 20260502180532 | 60 | 65 | 1.0 | 0.0 | 0.00 | 0.00 | 0.00 | 70 | 1012.3 |
| 20260502180340 | 60 | 133 | 1.0 | 0.0 | 0.00 | 0.00 | 0.00 | 69 | 1012.4 |
| 20260502170341 | 59 | 38 | 0.0 | 0.0 | 0.00 | 0.00 | 0.00 | 74 | 1012.2 |
| 20260502163554 | 57 | 38 | 0.0 | 0.0 | 0.00 | 0.00 | 0.00 | 78 | 1012.1 |
| 20260502163358 | 57 | 38 | 0.0 | 0.0 | 0.00 | 0.00 | 0.00 | 78 | 1012.1 |
| 20260502162050 | 56 | 42 | 0.0 | 0.0 | 0.00 | 0.00 | 0.00 | 80 | 1012.1 |
| 20260502161838 | 56 | 42 | 0.0 | 0.0 | 0.00 | 0.00 | 0.00 | 80 | 1012.1 |
| 20260502160533 | 56 | 44 | 0.0 | 0.0 | 0.00 | 0.00 | 0.00 | 81 | 1012.1 |
| 20260502160336 | 56 | 44 | 0.0 | 0.0 | 0.00 | 0.00 | 0.00 | 81 | 1012.0 |
| 20260502152033 | 55 | 44 | 0.0 | 0.0 | 0.00 | 0.00 | 0.00 | 81 | 1011.6 |
| 20260502151859 | 55 | 44 | 0.0 | 0.0 | 0.00 | 0.00 | 0.00 | 82 | 1011.5 |
| 20260502150532 | 55 | 44 | 1.0 | 0.0 | 0.00 | 0.00 | 0.00 | 82 | 1011.5 |
| 20260502150338 | 55 | 44 | 1.0 | 0.0 | 0.00 | 0.00 | 0.00 | 82 | 1011.5 |
| 20260502130542 | 56 | 259 | 0.0 | 0.0 | 0.00 | 0.00 | 0.00 | 81 | 1011.0 |
| 20260502130325 | 56 | 259 | 0.0 | 0.0 | 0.00 | 0.00 | 0.00 | 81 | 1011.0 |
| 20260502123557 | 56 | 259 | 0.0 | 0.0 | 0.00 | 0.00 | 0.00 | 81 | 1010.9 |
| 20260502123325 | 56 | 259 | 0.0 | 0.0 | 0.00 | 0.00 | 0.00 | 81 | 1010.7 |
| 20260502122021 | 56 | 259 | 0.0 | 0.0 | 0.00 | 0.00 | 0.00 | 81 | 1010.7 |
| 20260502121826 | 56 | 259 | 0.0 | 0.0 | 0.00 | 0.00 | 0.00 | 81 | 1010.8 |
| 20260502120519 | 56 | 259 | 0.0 | 0.0 | 0.00 | 0.00 | 0.00 | 80 | 1010.8 |
| 20260502120325 | 56 | 259 | 0.0 | 0.0 | 0.00 | 0.00 | 0.00 | 80 | 1010.9 |
| 20260502115025 | 56 | 259 | 0.0 | 0.0 | 0.00 | 0.00 | 0.00 | 80 | 1010.9 |
| 20260502114835 | 56 | 259 | 0.0 | 0.0 | 0.00 | 0.00 | 0.00 | 80 | 1010.9 |
| 20260502113527 | 56 | 259 | 0.0 | 0.0 | 0.00 | 0.00 | 0.00 | 80 | 1010.9 |
| 20260502113335 | 56 | 259 | 0.0 | 0.0 | 0.00 | 0.00 | 0.00 | 80 | 1011.0 |
| 20260502112030 | 56 | 259 | 0.0 | 0.0 | 0.00 | 0.00 | 0.00 | 80 | 1011.0 |
| 20260502111834 | 56 | 259 | 0.0 | 0.0 | 0.00 | 0.00 | 0.00 | 80 | 1011.0 |
| 20260502110528 | 56 | 259 | 0.0 | 0.0 | 0.00 | 0.00 | 0.00 | 80 | 1011.0 |
| 20260502110335 | 56 | 259 | 0.0 | 0.0 | 0.00 | 0.00 | 0.00 | 80 | 1011.0 |
| 20260502105030 | 56 | 259 | 0.0 | 0.0 | 0.00 | 0.00 | 0.00 | 80 | 1011.0 |
| 20260502104835 | 56 | 259 | 0.0 | 0.0 | 0.00 | 0.00 | 0.00 | 80 | 1011.0 |
| 20260502103549 | 56 | 259 | 0.0 | 0.0 | 0.00 | 0.00 | 0.00 | 80 | 1011.0 |
| 20260502103333 | 56 | 259 | 0.0 | 0.0 | 0.00 | 0.00 | 0.00 | 80 | 1011.1 |
| 20260502102047 | 56 | 259 | 0.0 | 0.0 | 0.00 | 0.00 | 0.00 | 79 | 1011.1 |
| 20260502101835 | 56 | 259 | 0.0 | 0.0 | 0.00 | 0.00 | 0.00 | 79 | 1011.3 |
| 20260502100529 | 56 | 259 | 0.0 | 0.0 | 0.00 | 0.00 | 0.00 | 79 | 1011.3 |
| 20260502100336 | 56 | 259 | 0.0 | 0.0 | 0.00 | 0.00 | 0.00 | 79 | 1011.4 |
| 20260502090552 | 56 | 259 | 0.0 | 0.0 | 0.00 | 0.00 | 0.00 | 79 | 1011.7 |
| 20260502090335 | 56 | 259 | 0.0 | 0.0 | 0.00 | 0.00 | 0.00 | 79 | 1012.0 |
| 20260502070541 | 57 | 259 | 0.0 | 0.0 | 0.00 | 0.00 | 0.00 | 79 | 1012.5 |
| 20260502070323 | 57 | 259 | 0.0 | 0.0 | 0.00 | 0.00 | 0.00 | 79 | 1012.5 |
| 20260502065038 | 57 | 258 | 0.0 | 0.0 | 0.00 | 0.00 | 0.00 | 79 | 1012.5 |
| 20260502064824 | 57 | 258 | 0.0 | 0.0 | 0.00 | 0.00 | 0.00 | 79 | 1012.5 |
| 20260502063522 | 57 | 257 | 0.0 | 0.0 | 0.00 | 0.00 | 0.00 | 79 | 1012.5 |
| 20260502063331 | 57 | 257 | 0.0 | 0.0 | 0.00 | 0.00 | 0.00 | 79 | 1012.5 |
| 20260502062046 | 57 | 257 | 0.0 | 0.0 | 0.00 | 0.00 | 0.00 | 78 | 1012.5 |
| 20260502061850 | 57 | 257 | 0.0 | 0.0 | 0.00 | 0.00 | 0.00 | 78 | 1012.6 |
| 20260502060523 | 57 | 257 | 0.0 | 0.0 | 0.00 | 0.00 | 0.00 | 77 | 1012.6 |
| 20260502060335 | 57 | 257 | 0.0 | 0.0 | 0.00 | 0.00 | 0.00 | 77 | 1012.7 |
| 20260502055028 | 57 | 257 | 0.0 | 0.0 | 0.00 | 0.00 | 0.00 | 77 | 1012.7 |
| 20260502054833 | 57 | 257 | 0.0 | 0.0 | 0.00 | 0.00 | 0.00 | 77 | 1012.6 |
| 20260502053528 | 57 | 257 | 0.0 | 0.0 | 0.00 | 0.00 | 0.00 | 78 | 1012.6 |
| 20260502053332 | 57 | 257 | 0.0 | 0.0 | 0.00 | 0.00 | 0.00 | 78 | 1012.6 |
| 20260502052050 | 57 | 257 | 0.0 | 0.0 | 0.00 | 0.00 | 0.00 | 77 | 1012.6 |
| 20260502051839 | 57 | 257 | 0.0 | 0.0 | 0.00 | 0.00 | 0.00 | 77 | 1012.6 |
| 20260502050534 | 57 | 257 | 0.0 | 0.0 | 0.00 | 0.00 | 0.00 | 77 | 1012.6 |
| 20260502050321 | 57 | 257 | 0.0 | 0.0 | 0.00 | 0.00 | 0.00 | 76 | 1012.5 |
| 20260502045021 | 58 | 257 | 0.0 | 0.0 | 0.00 | 0.00 | 0.00 | 76 | 1012.5 |
| 20260502044826 | 58 | 256 | 0.0 | 0.0 | 0.00 | 0.00 | 0.00 | 76 | 1012.4 |
| 20260502043520 | 58 | 257 | 0.0 | 0.0 | 0.00 | 0.00 | 0.00 | 76 | 1012.4 |
| 20260502043329 | 58 | 257 | 0.0 | 0.0 | 0.00 | 0.00 | 0.00 | 76 | 1012.2 |
| 20260502042044 | 58 | 257 | 0.0 | 0.0 | 0.00 | 0.00 | 0.00 | 75 | 1012.2 |
| 20260502041827 | 58 | 257 | 0.0 | 0.0 | 0.00 | 0.00 | 0.00 | 75 | 1012.1 |
| 20260502040522 | 59 | 257 | 0.0 | 0.0 | 0.00 | 0.00 | 0.00 | 74 | 1012.1 |
| 20260502040326 | 59 | 257 | 0.0 | 0.0 | 0.00 | 0.00 | 0.00 | 74 | 1011.9 |
| 20260502035020 | 59 | 256 | 0.0 | 0.0 | 0.00 | 0.00 | 0.00 | 73 | 1011.9 |
| 20260502034828 | 59 | 257 | 0.0 | 0.0 | 0.00 | 0.00 | 0.00 | 73 | 1011.9 |
| 20260502033523 | 60 | 257 | 0.0 | 0.0 | 0.00 | 0.00 | 0.00 | 72 | 1011.9 |
| 20260502033326 | 60 | 257 | 0.0 | 0.0 | 0.00 | 0.00 | 0.00 | 72 | 1011.6 |
| 20260502032041 | 60 | 257 | 0.0 | 0.0 | 0.00 | 0.00 | 0.00 | 70 | 1011.6 |
| 20260502031825 | 61 | 257 | 0.0 | 0.0 | 0.00 | 0.00 | 0.00 | 70 | 1011.6 |
| 20260502030519 | 62 | 256 | 0.0 | 0.0 | 0.00 | 0.00 | 0.00 | 68 | 1011.6 |
| 20260502030329 | 62 | 256 | 0.0 | 0.0 | 0.00 | 0.00 | 0.00 | 67 | 1011.5 |
| 20260502025024 | 63 | 256 | 0.0 | 0.0 | 0.00 | 0.00 | 0.00 | 66 | 1011.5 |
| 20260502024851 | 63 | 256 | 0.0 | 0.0 | 0.00 | 0.00 | 0.00 | 65 | 1011.2 |
| 20260502023545 | 65 | 254 | 0.0 | 0.0 | 0.00 | 0.00 | 0.00 | 61 | 1011.2 |
| 20260502023328 | 65 | 254 | 0.0 | 0.0 | 0.00 | 0.00 | 0.00 | 61 | 1011.0 |
| 20260502022021 | 67 | 254 | 0.0 | 0.0 | 0.00 | 0.00 | 0.00 | 57 | 1011.0 |
| 20260502021829 | 67 | 254 | 0.0 | 0.0 | 0.00 | 0.00 | 0.00 | 57 | 1011.0 |
| 20260502020544 | 69 | 254 | 0.0 | 0.0 | 0.00 | 0.00 | 0.00 | 54 | 1011.0 |
| 20260502020327 | 69 | 254 | 0.0 | 0.0 | 0.00 | 0.00 | 0.00 | 55 | 1011.0 |
| 20260502015023 | 70 | 252 | 0.0 | 0.0 | 0.00 | 0.00 | 0.00 | 55 | 1011.0 |
| 20260502014827 | 70 | 252 | 1.0 | 0.0 | 0.00 | 0.00 | 0.00 | 54 | 1010.9 |
| 20260502013521 | 72 | 257 | 0.0 | 0.0 | 0.00 | 0.00 | 0.00 | 52 | 1011.0 |
| 20260502013328 | 72 | 257 | 1.0 | 0.0 | 0.00 | 0.00 | 0.00 | 51 | 1010.8 |
| 20260502012043 | 72 | 249 | 0.0 | 0.0 | 0.00 | 0.00 | 0.00 | 51 | 1010.8 |
| 20260502011829 | 72 | 248 | 0.0 | 0.0 | 0.00 | 0.00 | 0.00 | 50 | 1010.7 |
| 20260502010544 | 73 | 254 | 0.0 | 0.0 | 0.00 | 0.00 | 0.00 | 50 | 1010.7 |
| 20260502010328 | 73 | 254 | 0.0 | 0.0 | 0.00 | 0.00 | 0.00 | 50 | 1010.6 |
| 20260502005026 | 74 | 253 | 0.0 | 0.0 | 0.00 | 0.00 | 0.00 | 49 | 1010.6 |
| 20260502004835 | 74 | 253 | 0.0 | 0.0 | 0.00 | 0.00 | 0.00 | 49 | 1010.5 |
| 20260502003531 | 75 | 252 | 0.0 | 0.0 | 0.00 | 0.00 | 0.00 | 48 | 1010.5 |
| 20260502003336 | 75 | 252 | 0.0 | 0.0 | 0.00 | 0.00 | 0.00 | 49 | 1010.5 |
| 20260502002032 | 76 | 248 | 0.0 | 0.0 | 0.00 | 0.00 | 0.00 | 47 | 1010.5 |
| 20260502001841 | 77 | 248 | 0.0 | 0.0 | 0.00 | 0.00 | 0.00 | 45 | 1010.5 |
| 20260502000537 | 77 | 248 | 0.0 | 0.0 | 0.00 | 0.00 | 0.00 | 46 | 1010.5 |
| 20260502000342 | 77 | 248 | 1.0 | 0.0 | 0.00 | 0.00 | 0.00 | 44 | 1010.6 |
| 20260501235057 | 78 | 240 | 0.0 | 0.0 | 0.00 | 0.00 | 0.00 | 45 | 1010.6 |
| 20260501234901 | 78 | 240 | 0.0 | 0.0 | 0.00 | 0.00 | 0.00 | 45 | 1010.9 |
| 20260501233534 | 77 | 249 | 0.0 | 0.0 | 0.00 | 0.00 | 0.00 | 47 | 1010.9 |
| 20260501233346 | 76 | 249 | 1.0 | 0.0 | 0.00 | 0.00 | 0.00 | 46 | 1011.0 |
| 20260501232019 | 77 | 250 | 1.0 | 0.0 | 0.00 | 0.00 | 0.00 | 46 | 1011.0 |
| 20260501231827 | 76 | 250 | 1.0 | 0.0 | 0.00 | 0.00 | 0.00 | 44 | 1011.0 |
| 20260501230542 | 76 | 246 | 1.0 | 0.0 | 0.00 | 0.00 | 0.00 | 46 | 1011.0 |
| 20260501230344 | 76 | 5 | 1.0 | 0.0 | 0.00 | 0.00 | 0.00 | 48 | 1011.2 |
| 20260501225039 | 76 | 341 | 1.0 | 0.0 | 0.00 | 0.00 | 0.00 | 45 | 1011.2 |
| 20260501224847 | 76 | 310 | 1.0 | 0.0 | 0.00 | 0.00 | 0.00 | 46 | 1011.5 |
| 20260501223541 | 76 | 13 | 1.0 | 0.0 | 0.00 | 0.00 | 0.00 | 46 | 1011.5 |
| 20260501223325 | 76 | 11 | 1.0 | 0.0 | 0.00 | 0.00 | 0.00 | 42 | 1011.8 |
| 20260501222039 | 76 | 11 | 1.0 | 0.0 | 0.00 | 0.00 | 0.00 | 47 | 1011.8 |
| 20260501221841 | 76 | 11 | 1.0 | 0.0 | 0.00 | 0.00 | 0.00 | 47 | 1012.0 |
| 20260501220538 | 76 | 27 | 2.0 | 0.0 | 0.00 | 0.00 | 0.00 | 45 | 1012.0 |
| 20260501220326 | 76 | 13 | 1.0 | 0.0 | 0.00 | 0.00 | 0.00 | 45 | 1012.0 |
| 20260501215020 | 75 | 5 | 1.0 | 0.0 | 0.00 | 0.00 | 0.00 | 47 | 1012.0 |
| 20260501214826 | 75 | 331 | 1.0 | 0.0 | 0.00 | 0.00 | 0.00 | 48 | 1012.1 |
| 20260501213520 | 75 | 14 | 2.0 | 0.0 | 0.00 | 0.00 | 0.00 | 47 | 1012.1 |
| 20260501213325 | 74 | 343 | 3.0 | 0.0 | 0.00 | 0.00 | 0.00 | 48 | 1012.1 |
| 20260501212020 | 75 | 14 | 2.0 | 0.0 | 0.00 | 0.00 | 0.00 | 45 | 1012.1 |
| 20260501211827 | 75 | 274 | 2.0 | 0.0 | 0.00 | 0.00 | 0.00 | 45 | 1012.1 |
| 20260501210522 | 75 | 26 | 1.0 | 0.0 | 0.00 | 0.00 | 0.00 | 46 | 1012.1 |
| 20260501210326 | 75 | 26 | 1.0 | 0.0 | 0.00 | 0.00 | 0.00 | 45 | 1012.3 |